Regional Weather Roundup
Issued by NWS Sterling, VA

Current Version | Previous Version | Text Only | Print | Product List | Glossary On
Versions: 1 2 3 4 5 6 7 8 9 10 11 12 13 14 15 16 17 18 19 20 21 22 23 24 25 26 27 28 29 30 31 32 33 34 35 36 37 38 39 40 41 42 43 44 45 46 47 48 49 50
000
ASUS41 KLWX 270810
RWRLWX

REGIONAL WEATHER ROUNDUP
NATIONAL WEATHER SERVICE BALTIMORE MD/WASHINGTON DC
400 AM EDT FRI MAY 27 2016

Note: "FAIR" indicates few or no clouds below 12,000 feet
with no significant weather and/or obstructions to visibility.
 TC=TEMPERATURE CELSIUS

 * =Non NWS site. Station does not report precipitation (e.g. rain,
    snow, etc.), thunder, or fog.

DCZ001-MDZ009-015-VAZ040>042-051-053>054-270900-
WASHINGTON METRO

CITY           SKY/WX    TMP DP  RH WIND       PRES   REMARKS
WASHINGTON NAT CLOUDY    71  64  78 S8        30.07R
DULLES         FAIR      71  64  78 S6        30.06S
ANDREWS AFB    PTCLDY    71  63  78 S8        30.06R
FT BELVOIR     FAIR      65  64  95 CALM      30.07R
QUANTICO       FAIR      70  66  87 CALM      30.08R
COLLEGE PARK*  FAIR      72  63  73 CALM      30.06R
LEESBURG*      FAIR      70  68  94 CALM      30.07S
MANASSAS*      FAIR      66  64  94 CALM      30.07R

$$

MDZ006>007-011-014-270900-
BALTIMORE METRO

CITY           SKY/WX    TMP DP  RH WIND       PRES   REMARKS
BWI AIRPORT    MOCLDY    70  63  78 W3        30.06R
MD SCIENCE CTR   N/A     72  63  73 MISG      30.06R
MARTIN STATE   PTCLDY    70  68  94 SE5       30.07R
ANNAPOLIS      CLEAR     68  66  93 SE7       30.06R
FORT MEADE*    PTCLDY    63  61  94 CALM      30.08S

$$

MDZ012-015-019>023-270900-
MARYLAND EASTERN SHORE

CITY           SKY/WX    TMP DP  RH WIND       PRES   REMARKS
OCEAN CITY     PTCLDY    68  65  90 SW6       30.10R
SALISBURY      CLEAR     68  63  84 S7        30.09S
BAY BRIDGE AP* PTCLDY    72  64  78 S5        30.06R
CAMBRIDGE*       N/A     68  64  88 S5        30.08R
EASTON*        CLEAR     73  70  91 SW6       30.11R

$$

MDZ017>025-270900-
SOUTHERN MARYLAND

CITY           SKY/WX    TMP DP  RH WIND       PRES   REMARKS
PATUXENT RIVER PTCLDY    72  64  76 SW13      30.07R
ST INIGOES     PTCLDY    73  65  75 VRB5      30.08R
LEONARDTOWN*   PTCLDY    72  63  73 SW7       30.10R

$$

MDZ003>005-270900-
NORTH CENTRAL MARYLAND

CITY           SKY/WX    TMP DP  RH WIND       PRES   REMARKS
FREDERICK*     CLOUDY    68  68 100 SE5       30.08S
HAGERSTOWN APT PTCLDY    71  65  81 SE6       30.05F
WESTMINSTER*   CLOUDY    72  68  88 CALM      30.07S

$$

MDZ501>502-270900-
WESTERN MARYLAND

CITY           SKY/WX    TMP DP  RH WIND       PRES   REMARKS
OAKLAND*       MOCLDY    61  59  94 SW3       30.16S
CUMBERLAND*    CLOUDY    64  64 100 CALM      30.11S VSB 1/4

$$

VAZ025>031-270900-
SHENANDOAH VALLEY

CITY           SKY/WX    TMP DP  RH WIND       PRES   REMARKS
WINCHESTER*    FAIR      68  64  88 SW5       30.07S
FRONT ROYAL*   FAIR      68  63  83 SW5       30.06F
LURAY*         FAIR      64  64 100 SW3       30.09F
NEW MARKET*    FAIR      62  62  99 CALM      30.08F
STAUNTON*      FAIR      59  59  98 CALM      30.13S FOG
WAYNESBORO*    FAIR      62  60  94 CALM      30.12S

$$

WVZ021-048>050-054>055-270900-
EASTERN WEST VIRGINIA PANHANDLE

CITY           SKY/WX    TMP DP  RH WIND       PRES   REMARKS
MARTINSBURG    FAIR      68  64  87 S5        30.05S
PETERSBURG*    CLOUDY    63  63  99 CALM      30.10S FOG

$$

VAZ036>039-050-270900-
CENTRAL FOOTHILLS

CITY           SKY/WX    TMP DP  RH WIND       PRES   REMARKS
CHARLOTTESVILL CLOUDY    67  62  84 CALM      30.08R
CULPEPER*      FAIR      65  65  99 CALM      30.07S
ORANGE*        FAIR      64  64 100 CALM      30.09S
GORDONSVILLE*  FAIR      64  64  98 CALM      30.07S
WARRENTON*     FAIR      65  60  85 CALM      30.06S

$$

VAZ055>057-270900-
NORTH AND CENTRAL PIEDMONT

CITY           SKY/WX    TMP DP  RH WIND       PRES   REMARKS
FREDERICKSBRG* NOT AVBL
STAFFORD*      FAIR      64  62  93 CALM      30.11R

$$

NCZ024-NYZ072-PAZ021-071-VAZ022-071-270900-
OTHER REGIONAL OBSERVATIONS

CITY           SKY/WX    TMP DP  RH WIND       PRES   REMARKS
NEW YORK CITY  CLEAR     74  56  53 VRB3      30.09R
PHILADELPHIA   PTCLDY    71  61  70 S6        30.06S
PITTSBURGH     PTCLDY    68  63  84 S3        30.05F
ROANOKE        FAIR      65  63  93 W3        30.13S
RICHMOND       FAIR      69  65  86 S12       30.10R
RALEIGH        MOCLDY    69  59  70 SW7       30.15R

$$

ANZ530>537-270900-
MARINE OBSERVATIONS

STATION/POSITION TIME  TEMP    WIND        PRES
                       AIR SEA DIR/SP/G
                 (UTC) (F)     (DEG/KT/KT) (MB)
THOMAS PT LIGHT  0800   69 66  170/  9/ 10 1019.3R
BALT KEY BRIDGE  0700   71     150/  1/  2 1017.3R
COVE POINT       0700   74     240/ 14/ 19 1018.4S
LEWISETTA        0700   74 72  230/ 11/ 13 1018.0R
SOLOMONS ISLAND  0700   73 67  210/ 13/ 15   N/A
PINEY POINT      0700          230/ 13/ 15   N/A

$$




USA.gov is the U.S. government's official web portal to all federal, state and local government web resources and services.